This is the latest recevied weather packets stored in our database for station/object KC5DAQ-27. If no packets are shown the sender has not sent any weather packets the latest 1 day(s).
| Time | Temp. | Humidity | Pressure | Rain* | Wind** | Luminosity | Snow |
|---|---|---|---|---|---|---|---|
| 1778007037 | 27.22° C | 83% | 1000.3 hPa | 0 mm | 4.02 m/s, 0° | 723 W/m² | - |
| 1778006976 | 27.22° C | 83% | 1000.2 hPa | 0 mm | 4.02 m/s, 0° | 607 W/m² | - |
| 1778006916 | 27.22° C | 83% | 1000.2 hPa | 0 mm | 3.13 m/s, 0° | 593 W/m² | - |
| 1778006856 | 27.22° C | 83% | 1000.2 hPa | 0 mm | 3.13 m/s, 0° | 441 W/m² | - |
| 1778006797 | 27.22° C | 83% | 1000.2 hPa | 0 mm | 3.58 m/s, 0° | 473 W/m² | - |
| 1778006736 | 27.22° C | 84% | 1000.2 hPa | 0 mm | 3.13 m/s, 0° | 480 W/m² | - |
| 1778006676 | 27.22° C | 84% | 1000.3 hPa | 0 mm | 2.24 m/s, 0° | 459 W/m² | - |
| 1778006615 | 27.22° C | 84% | 1000.3 hPa | 0.25 mm | 2.68 m/s, 0° | 462 W/m² | - |
| 1778006556 | 27.22° C | 84% | 1000.4 hPa | 0.25 mm | 2.68 m/s, 0° | 797 W/m² | - |
| 1778006496 | 27.22° C | 84% | 1000.4 hPa | 0.25 mm | 2.24 m/s, 0° | 707 W/m² | - |
| 1778006436 | 27.22° C | 84% | 1000.3 hPa | 0.25 mm | 2.68 m/s, 0° | 645 W/m² | - |
| 1778006375 | 27.22° C | 84% | 1000.4 hPa | 0.25 mm | 3.13 m/s, 0° | 666 W/m² | - |
| 1778006315 | 27.22° C | 84% | 1000.5 hPa | 0.25 mm | 3.13 m/s, 0° | 600 W/m² | - |
| 1778006256 | 27.22° C | 84% | 1000.5 hPa | 0.25 mm | 3.13 m/s, 0° | 564 W/m² | - |
| 1778006195 | 27.22° C | 84% | 1000.5 hPa | 0.25 mm | 4.02 m/s, 0° | 614 W/m² | - |
| 1778006136 | 27.22° C | 84% | 1000.5 hPa | 0.25 mm | 4.47 m/s, 0° | 637 W/m² | - |
| 1778006075 | 27.22° C | 84% | 1000.5 hPa | 0.25 mm | 4.02 m/s, 0° | 536 W/m² | - |
| 1778006016 | 27.22° C | 84% | 1000.7 hPa | 0.25 mm | 3.13 m/s, 0° | 552 W/m² | - |
| 1778005957 | 27.22° C | 84% | 1000.5 hPa | 0.25 mm | 3.13 m/s, 0° | 626 W/m² | - |
| 1778005895 | 27.22° C | 84% | 1000.5 hPa | 0.25 mm | 3.13 m/s, 0° | 607 W/m² | - |
| 1778005837 | 27.22° C | 84% | 1000.3 hPa | 0.25 mm | 3.13 m/s, 0° | 578 W/m² | - |
| 1778005775 | 27.22° C | 84% | 1000.5 hPa | 0.25 mm | 3.58 m/s, 0° | 533 W/m² | - |
| 1778005716 | 27.22° C | 84% | 1000.5 hPa | 0.25 mm | 3.13 m/s, 0° | 496 W/m² | - |
| 1778005656 | 27.22° C | 84% | 1000.4 hPa | 0.25 mm | 2.68 m/s, 0° | 484 W/m² | - |
| 1778005595 | 27.22° C | 84% | 1000.4 hPa | 0.25 mm | 3.13 m/s, 0° | 473 W/m² | - |
* Rain latest hour (hover to see other rain measurements)
** Current wind speed in m/s (hover to see current wind gust speed)